owner,sensor,date,latitude,longitude,air_temperature,qcFlag 
COMPS,ioos:station:USF.COMPS:C13:1,2014-02-01T00:05:00Z,26.0630,-83.0730,16.43,1111122 
COMPS,ioos:station:USF.COMPS:C13:1,2014-02-01T00:35:00Z,26.0630,-83.0730,16.57,1111122 
COMPS,ioos:station:USF.COMPS:C13:1,2014-02-01T01:05:00Z,26.0630,-83.0730,16.9,1111122 
COMPS,ioos:station:USF.COMPS:C13:1,2014-02-01T01:35:00Z,26.0630,-83.0730,16.99,1111122 
COMPS,ioos:station:USF.COMPS:C13:1,2014-02-01T02:05:00Z,26.0630,-83.0730,17.11,1111122 
COMPS,ioos:station:USF.COMPS:C13:1,2014-02-01T02:35:00Z,26.0630,-83.0730,17.19,1111122 
COMPS,ioos:station:USF.COMPS:C13:1,2014-02-01T03:05:00Z,26.0630,-83.0730,17.2,1111122 
COMPS,ioos:station:USF.COMPS:C13:1,2014-02-01T03:35:00Z,26.0630,-83.0730,17.29,1111122 
COMPS,ioos:station:USF.COMPS:C13:1,2014-02-01T04:05:00Z,26.0630,-83.0730,17.23,1111122 
COMPS,ioos:station:USF.COMPS:C13:1,2014-02-01T04:35:00Z,26.0630,-83.0730,17.31,1111122 
COMPS,ioos:station:USF.COMPS:C13:1,2014-02-01T05:05:00Z,26.0630,-83.0730,17.44,1111122 
COMPS,ioos:station:USF.COMPS:C13:1,2014-02-01T05:35:00Z,26.0630,-83.0730,17.58,1111122 
COMPS,ioos:station:USF.COMPS:C13:1,2014-02-01T06:05:00Z,26.0630,-83.0730,17.7,1111122 
COMPS,ioos:station:USF.COMPS:C13:1,2014-02-01T06:35:00Z,26.0630,-83.0730,17.86,1111122 
COMPS,ioos:station:USF.COMPS:C13:1,2014-02-01T07:05:00Z,26.0630,-83.0730,17.89,1111122 
COMPS,ioos:station:USF.COMPS:C13:1,2014-02-01T07:35:00Z,26.0630,-83.0730,17.82,1111122 
COMPS,ioos:station:USF.COMPS:C13:1,2014-02-01T08:05:00Z,26.0630,-83.0730,17.76,1111122 
COMPS,ioos:station:USF.COMPS:C13:1,2014-02-01T08:35:00Z,26.0630,-83.0730,17.71,1111122 
COMPS,ioos:station:USF.COMPS:C13:1,2014-02-01T09:05:00Z,26.0630,-83.0730,17.72,1111122 
COMPS,ioos:station:USF.COMPS:C13:1,2014-02-01T09:35:00Z,26.0630,-83.0730,17.81,1111122 
COMPS,ioos:station:USF.COMPS:C13:1,2014-02-01T10:05:00Z,26.0630,-83.0730,17.77,1111122 
COMPS,ioos:station:USF.COMPS:C13:1,2014-02-01T10:35:00Z,26.0630,-83.0730,17.71,1111122 
COMPS,ioos:station:USF.COMPS:C13:1,2014-02-01T11:05:00Z,26.0630,-83.0730,17.73,1111122 
COMPS,ioos:station:USF.COMPS:C13:1,2014-02-01T11:35:00Z,26.0630,-83.0730,17.76,1111122 
COMPS,ioos:station:USF.COMPS:C13:1,2014-02-01T12:05:00Z,26.0630,-83.0730,17.76,1111122 
COMPS,ioos:station:USF.COMPS:C13:1,2014-02-01T12:35:00Z,26.0630,-83.0730,17.75,1111122 
COMPS,ioos:station:USF.COMPS:C13:1,2014-02-01T13:05:00Z,26.0630,-83.0730,17.73,1111122 
COMPS,ioos:station:USF.COMPS:C13:1,2014-02-01T13:35:00Z,26.0630,-83.0730,17.84,1111122 
COMPS,ioos:station:USF.COMPS:C13:1,2014-02-01T14:05:00Z,26.0630,-83.0730,17.86,1111122 
COMPS,ioos:station:USF.COMPS:C13:1,2014-02-01T14:35:00Z,26.0630,-83.0730,17.84,1111122 
COMPS,ioos:station:USF.COMPS:C13:1,2014-02-01T15:05:00Z,26.0630,-83.0730,17.81,1111122 
COMPS,ioos:station:USF.COMPS:C13:1,2014-02-01T15:35:00Z,26.0630,-83.0730,17.81,1111122 
COMPS,ioos:station:USF.COMPS:C13:1,2014-02-01T16:05:00Z,26.0630,-83.0730,18.02,1111122 
COMPS,ioos:station:USF.COMPS:C13:1,2014-02-01T16:35:00Z,26.0630,-83.0730,18.05,1111122 
COMPS,ioos:station:USF.COMPS:C13:1,2014-02-01T17:05:00Z,26.0630,-83.0730,18.33,1111122 
COMPS,ioos:station:USF.COMPS:C13:1,2014-02-01T17:35:00Z,26.0630,-83.0730,18.22,1111122 
COMPS,ioos:station:USF.COMPS:C13:1,2014-02-01T18:05:00Z,26.0630,-83.0730,18.15,1111122 
COMPS,ioos:station:USF.COMPS:C13:1,2014-02-01T18:35:00Z,26.0630,-83.0730,18.04,1111122 
COMPS,ioos:station:USF.COMPS:C13:1,2014-02-01T19:05:00Z,26.0630,-83.0730,18.23,1111122 
COMPS,ioos:station:USF.COMPS:C13:1,2014-02-01T19:35:00Z,26.0630,-83.0730,18.24,1111122 
COMPS,ioos:station:USF.COMPS:C13:1,2014-02-01T20:05:00Z,26.0630,-83.0730,18.31,1111122 
COMPS,ioos:station:USF.COMPS:C13:1,2014-02-01T20:35:00Z,26.0630,-83.0730,18.26,1111122 
COMPS,ioos:station:USF.COMPS:C13:1,2014-02-01T21:05:00Z,26.0630,-83.0730,18.24,1111122 
COMPS,ioos:station:USF.COMPS:C13:1,2014-02-01T21:35:00Z,26.0630,-83.0730,18.16,1111122 
COMPS,ioos:station:USF.COMPS:C13:1,2014-02-01T22:05:00Z,26.0630,-83.0730,18.13,1111122 
COMPS,ioos:station:USF.COMPS:C13:1,2014-02-01T22:35:00Z,26.0630,-83.0730,18.06,1111122 
COMPS,ioos:station:USF.COMPS:C13:1,2014-02-01T23:05:00Z,26.0630,-83.0730,17.98,1111122 
COMPS,ioos:station:USF.COMPS:C13:1,2014-02-01T23:35:00Z,26.0630,-83.0730,17.93,1111122 
COMPS,ioos:station:USF.COMPS:C13:1,2014-02-02T00:05:00Z,26.0630,-83.0730,17.87,1111122 
COMPS,ioos:station:USF.COMPS:C13:1,2014-02-02T00:35:00Z,26.0630,-83.0730,17.84,1111122 
COMPS,ioos:station:USF.COMPS:C13:1,2014-02-02T01:05:00Z,26.0630,-83.0730,17.73,1111122 
COMPS,ioos:station:USF.COMPS:C13:1,2014-02-02T01:35:00Z,26.0630,-83.0730,17.75,1111122 
COMPS,ioos:station:USF.COMPS:C13:1,2014-02-02T02:05:00Z,26.0630,-83.0730,17.75,1111122 
COMPS,ioos:station:USF.COMPS:C13:1,2014-02-02T02:35:00Z,26.0630,-83.0730,17.44,1111122 
COMPS,ioos:station:USF.COMPS:C13:1,2014-02-02T03:05:00Z,26.0630,-83.0730,17.65,1111122 
COMPS,ioos:station:USF.COMPS:C13:1,2014-02-02T03:35:00Z,26.0630,-83.0730,17.72,1111122 
COMPS,ioos:station:USF.COMPS:C13:1,2014-02-02T04:05:00Z,26.0630,-83.0730,17.78,1111122 
COMPS,ioos:station:USF.COMPS:C13:1,2014-02-02T04:35:00Z,26.0630,-83.0730,17.84,1111122 
COMPS,ioos:station:USF.COMPS:C13:1,2014-02-02T05:05:00Z,26.0630,-83.0730,17.88,1111122 
COMPS,ioos:station:USF.COMPS:C13:1,2014-02-02T05:35:00Z,26.0630,-83.0730,17.84,1111122 
COMPS,ioos:station:USF.COMPS:C13:1,2014-02-02T06:05:00Z,26.0630,-83.0730,17.52,1111122 
COMPS,ioos:station:USF.COMPS:C13:1,2014-02-02T06:35:00Z,26.0630,-83.0730,17.75,1111122 
COMPS,ioos:station:USF.COMPS:C13:1,2014-02-02T07:05:00Z,26.0630,-83.0730,17.74,1111122 
COMPS,ioos:station:USF.COMPS:C13:1,2014-02-02T07:35:00Z,26.0630,-83.0730,17.72,1111122 
COMPS,ioos:station:USF.COMPS:C13:1,2014-02-02T08:05:00Z,26.0630,-83.0730,17.7,1111122 
COMPS,ioos:station:USF.COMPS:C13:1,2014-02-02T08:35:00Z,26.0630,-83.0730,17.75,1111122 
COMPS,ioos:station:USF.COMPS:C13:1,2014-02-02T09:05:00Z,26.0630,-83.0730,17.62,1111122 
COMPS,ioos:station:USF.COMPS:C13:1,2014-02-02T09:35:00Z,26.0630,-83.0730,17.21,1111122 
COMPS,ioos:station:USF.COMPS:C13:1,2014-02-02T10:05:00Z,26.0630,-83.0730,17.28,1111122 
COMPS,ioos:station:USF.COMPS:C13:1,2014-02-02T10:35:00Z,26.0630,-83.0730,17.14,1111122 
COMPS,ioos:station:USF.COMPS:C13:1,2014-02-02T11:05:00Z,26.0630,-83.0730,17.17,1111122 
COMPS,ioos:station:USF.COMPS:C13:1,2014-02-02T11:35:00Z,26.0630,-83.0730,17.24,1111122 
COMPS,ioos:station:USF.COMPS:C13:1,2014-02-02T12:05:00Z,26.0630,-83.0730,17.42,1111122 
COMPS,ioos:station:USF.COMPS:C13:1,2014-02-02T12:35:00Z,26.0630,-83.0730,17.47,1111122 
COMPS,ioos:station:USF.COMPS:C13:1,2014-02-02T13:05:00Z,26.0630,-83.0730,17.8,1111122 
COMPS,ioos:station:USF.COMPS:C13:1,2014-02-02T13:35:00Z,26.0630,-83.0730,18.29,1111122 
COMPS,ioos:station:USF.COMPS:C13:1,2014-02-02T14:05:00Z,26.0630,-83.0730,18.61,1111122 
COMPS,ioos:station:USF.COMPS:C13:1,2014-02-02T14:35:00Z,26.0630,-83.0730,18.69,1111122 
COMPS,ioos:station:USF.COMPS:C13:1,2014-02-02T15:05:00Z,26.0630,-83.0730,18.68,1111122 
COMPS,ioos:station:USF.COMPS:C13:1,2014-02-02T15:35:00Z,26.0630,-83.0730,18.61,1111122 
COMPS,ioos:station:USF.COMPS:C13:1,2014-02-02T16:05:00Z,26.0630,-83.0730,18.53,1111122 
COMPS,ioos:station:USF.COMPS:C13:1,2014-02-02T16:35:00Z,26.0630,-83.0730,18.24,1111122 
COMPS,ioos:station:USF.COMPS:C13:1,2014-02-02T17:05:00Z,26.0630,-83.0730,17.82,1111122 
COMPS,ioos:station:USF.COMPS:C13:1,2014-02-02T17:35:00Z,26.0630,-83.0730,17.85,1111122 
COMPS,ioos:station:USF.COMPS:C13:1,2014-02-02T18:05:00Z,26.0630,-83.0730,18.0,1111122 
COMPS,ioos:station:USF.COMPS:C13:1,2014-02-02T18:35:00Z,26.0630,-83.0730,18.08,1111122 
COMPS,ioos:station:USF.COMPS:C13:1,2014-02-02T19:05:00Z,26.0630,-83.0730,18.25,1111122 
COMPS,ioos:station:USF.COMPS:C13:1,2014-02-02T19:35:00Z,26.0630,-83.0730,18.31,1111122 
COMPS,ioos:station:USF.COMPS:C13:1,2014-02-02T20:05:00Z,26.0630,-83.0730,18.39,1111122 
COMPS,ioos:station:USF.COMPS:C13:1,2014-02-02T20:35:00Z,26.0630,-83.0730,18.52,1111122 
COMPS,ioos:station:USF.COMPS:C13:1,2014-02-02T21:05:00Z,26.0630,-83.0730,18.59,1111122 
COMPS,ioos:station:USF.COMPS:C13:1,2014-02-02T21:35:00Z,26.0630,-83.0730,18.7,1111122 
COMPS,ioos:station:USF.COMPS:C13:1,2014-02-02T22:05:00Z,26.0630,-83.0730,18.83,1111122 
COMPS,ioos:station:USF.COMPS:C13:1,2014-02-02T22:35:00Z,26.0630,-83.0730,18.85,1111122 
COMPS,ioos:station:USF.COMPS:C13:1,2014-02-02T23:05:00Z,26.0630,-83.0730,18.62,1111122 
COMPS,ioos:station:USF.COMPS:C13:1,2014-02-02T23:35:00Z,26.0630,-83.0730,18.53,1111122 
COMPS,ioos:station:USF.COMPS:C13:1,2014-02-03T00:05:00Z,26.0630,-83.0730,18.42,1111122 
COMPS,ioos:station:USF.COMPS:C13:1,2014-02-03T00:35:00Z,26.0630,-83.0730,18.45,1111122 
COMPS,ioos:station:USF.COMPS:C13:1,2014-02-03T01:05:00Z,26.0630,-83.0730,18.54,1111122 
COMPS,ioos:station:USF.COMPS:C13:1,2014-02-03T01:35:00Z,26.0630,-83.0730,18.68,1111122 
COMPS,ioos:station:USF.COMPS:C13:1,2014-02-03T02:05:00Z,26.0630,-83.0730,18.88,1111122 
COMPS,ioos:station:USF.COMPS:C13:1,2014-02-03T02:35:00Z,26.0630,-83.0730,18.97,1111122 
COMPS,ioos:station:USF.COMPS:C13:1,2014-02-03T03:05:00Z,26.0630,-83.0730,18.88,1111122 
COMPS,ioos:station:USF.COMPS:C13:1,2014-02-03T03:35:00Z,26.0630,-83.0730,18.88,1111122 
COMPS,ioos:station:USF.COMPS:C13:1,2014-02-03T04:05:00Z,26.0630,-83.0730,18.87,1111122 
COMPS,ioos:station:USF.COMPS:C13:1,2014-02-03T04:35:00Z,26.0630,-83.0730,18.88,1111122 
COMPS,ioos:station:USF.COMPS:C13:1,2014-02-03T05:05:00Z,26.0630,-83.0730,18.88,1111122 
COMPS,ioos:station:USF.COMPS:C13:1,2014-02-03T05:35:00Z,26.0630,-83.0730,18.73,1111122 
COMPS,ioos:station:USF.COMPS:C13:1,2014-02-03T06:05:00Z,26.0630,-83.0730,18.63,1111122 
COMPS,ioos:station:USF.COMPS:C13:1,2014-02-03T06:35:00Z,26.0630,-83.0730,18.57,1111122 
COMPS,ioos:station:USF.COMPS:C13:1,2014-02-03T07:05:00Z,26.0630,-83.0730,18.54,1111122 
COMPS,ioos:station:USF.COMPS:C13:1,2014-02-03T07:35:00Z,26.0630,-83.0730,18.52,1111122 
COMPS,ioos:station:USF.COMPS:C13:1,2014-02-03T08:05:00Z,26.0630,-83.0730,18.4,1111122 
COMPS,ioos:station:USF.COMPS:C13:1,2014-02-03T08:35:00Z,26.0630,-83.0730,18.28,1111122 
COMPS,ioos:station:USF.COMPS:C13:1,2014-02-03T09:05:00Z,26.0630,-83.0730,18.15,1111122 
COMPS,ioos:station:USF.COMPS:C13:1,2014-02-03T09:35:00Z,26.0630,-83.0730,18.04,1111122 
COMPS,ioos:station:USF.COMPS:C13:1,2014-02-03T10:05:00Z,26.0630,-83.0730,17.9,1111122 
COMPS,ioos:station:USF.COMPS:C13:1,2014-02-03T10:35:00Z,26.0630,-83.0730,18.09,1111122 
COMPS,ioos:station:USF.COMPS:C13:1,2014-02-03T11:05:00Z,26.0630,-83.0730,17.7,1111122 
COMPS,ioos:station:USF.COMPS:C13:1,2014-02-03T11:35:00Z,26.0630,-83.0730,17.29,1111122 
COMPS,ioos:station:USF.COMPS:C13:1,2014-02-03T12:05:00Z,26.0630,-83.0730,16.82,1111122 
COMPS,ioos:station:USF.COMPS:C13:1,2014-02-03T12:35:00Z,26.0630,-83.0730,16.7,1111122 
COMPS,ioos:station:USF.COMPS:C13:1,2014-02-03T13:05:00Z,26.0630,-83.0730,16.98,1111122 
COMPS,ioos:station:USF.COMPS:C13:1,2014-02-03T13:35:00Z,26.0630,-83.0730,17.52,1111122 
COMPS,ioos:station:USF.COMPS:C13:1,2014-02-03T14:05:00Z,26.0630,-83.0730,17.76,1111122 
COMPS,ioos:station:USF.COMPS:C13:1,2014-02-03T14:35:00Z,26.0630,-83.0730,17.88,1111122 
COMPS,ioos:station:USF.COMPS:C13:1,2014-02-03T15:05:00Z,26.0630,-83.0730,17.82,1111122 
COMPS,ioos:station:USF.COMPS:C13:1,2014-02-03T15:35:00Z,26.0630,-83.0730,17.79,1111122 
COMPS,ioos:station:USF.COMPS:C13:1,2014-02-03T16:05:00Z,26.0630,-83.0730,17.76,1111122 
COMPS,ioos:station:USF.COMPS:C13:1,2014-02-03T16:35:00Z,26.0630,-83.0730,17.28,1111122 
COMPS,ioos:station:USF.COMPS:C13:1,2014-02-03T17:05:00Z,26.0630,-83.0730,16.94,1111122 
COMPS,ioos:station:USF.COMPS:C13:1,2014-02-03T17:35:00Z,26.0630,-83.0730,17.18,1111122 
COMPS,ioos:station:USF.COMPS:C13:1,2014-02-03T18:05:00Z,26.0630,-83.0730,17.43,1111122 
COMPS,ioos:station:USF.COMPS:C13:1,2014-02-03T18:35:00Z,26.0630,-83.0730,17.54,1111122 
COMPS,ioos:station:USF.COMPS:C13:1,2014-02-03T19:05:00Z,26.0630,-83.0730,17.69,1111122 
COMPS,ioos:station:USF.COMPS:C13:1,2014-02-03T19:35:00Z,26.0630,-83.0730,17.81,1111122 
COMPS,ioos:station:USF.COMPS:C13:1,2014-02-03T20:05:00Z,26.0630,-83.0730,18.0,1111122 
COMPS,ioos:station:USF.COMPS:C13:1,2014-02-03T20:35:00Z,26.0630,-83.0730,18.19,1111122 
COMPS,ioos:station:USF.COMPS:C13:1,2014-02-03T21:05:00Z,26.0630,-83.0730,18.51,1111122 
COMPS,ioos:station:USF.COMPS:C13:1,2014-02-03T21:35:00Z,26.0630,-83.0730,18.69,1111122 
COMPS,ioos:station:USF.COMPS:C13:1,2014-02-03T22:05:00Z,26.0630,-83.0730,18.98,1111122 
COMPS,ioos:station:USF.COMPS:C13:1,2014-02-03T22:35:00Z,26.0630,-83.0730,19.06,1111122 
COMPS,ioos:station:USF.COMPS:C13:1,2014-02-03T23:05:00Z,26.0630,-83.0730,18.88,1111122 
COMPS,ioos:station:USF.COMPS:C13:1,2014-02-03T23:35:00Z,26.0630,-83.0730,18.73,1111122 
COMPS,ioos:station:USF.COMPS:C13:1,2014-02-04T00:05:00Z,26.0630,-83.0730,18.68,1111122 
COMPS,ioos:station:USF.COMPS:C13:1,2014-02-04T00:35:00Z,26.0630,-83.0730,18.64,1111122 
COMPS,ioos:station:USF.COMPS:C13:1,2014-02-04T01:05:00Z,26.0630,-83.0730,18.54,1111122 
COMPS,ioos:station:USF.COMPS:C13:1,2014-02-04T01:35:00Z,26.0630,-83.0730,18.53,1111122 
COMPS,ioos:station:USF.COMPS:C13:1,2014-02-04T02:05:00Z,26.0630,-83.0730,18.52,1111122 
COMPS,ioos:station:USF.COMPS:C13:1,2014-02-04T02:35:00Z,26.0630,-83.0730,18.44,1111122 
COMPS,ioos:station:USF.COMPS:C13:1,2014-02-04T03:05:00Z,26.0630,-83.0730,18.47,1111122 
COMPS,ioos:station:USF.COMPS:C13:1,2014-02-04T03:35:00Z,26.0630,-83.0730,18.45,1111122 
COMPS,ioos:station:USF.COMPS:C13:1,2014-02-04T04:05:00Z,26.0630,-83.0730,18.42,1111122 
COMPS,ioos:station:USF.COMPS:C13:1,2014-02-04T04:35:00Z,26.0630,-83.0730,18.5,1111122 
COMPS,ioos:station:USF.COMPS:C13:1,2014-02-04T05:05:00Z,26.0630,-83.0730,18.38,1111122 
COMPS,ioos:station:USF.COMPS:C13:1,2014-02-04T05:35:00Z,26.0630,-83.0730,18.3,1111122 
COMPS,ioos:station:USF.COMPS:C13:1,2014-02-04T06:05:00Z,26.0630,-83.0730,18.21,1111122 
COMPS,ioos:station:USF.COMPS:C13:1,2014-02-04T06:35:00Z,26.0630,-83.0730,18.14,1111122 
COMPS,ioos:station:USF.COMPS:C13:1,2014-02-13T14:05:00Z,26.0630,-83.0730,17.91,1111122 
COMPS,ioos:station:USF.COMPS:C13:1,2014-02-13T14:35:00Z,26.0630,-83.0730,18.05,1111122 
COMPS,ioos:station:USF.COMPS:C13:1,2014-02-13T15:05:00Z,26.0630,-83.0730,18.25,1111122 
COMPS,ioos:station:USF.COMPS:C13:1,2014-02-13T15:35:00Z,26.0630,-83.0730,18.5,1111122 
COMPS,ioos:station:USF.COMPS:C13:1,2014-02-13T16:05:00Z,26.0630,-83.0730,18.22,1111122 
COMPS,ioos:station:USF.COMPS:C13:1,2014-02-13T16:35:00Z,26.0630,-83.0730,18.54,1111122 
COMPS,ioos:station:USF.COMPS:C13:1,2014-02-13T17:05:00Z,26.0630,-83.0730,18.57,1111122 
COMPS,ioos:station:USF.COMPS:C13:1,2014-02-13T17:35:00Z,26.0630,-83.0730,18.61,1111122 
COMPS,ioos:station:USF.COMPS:C13:1,2014-02-13T18:05:00Z,26.0630,-83.0730,18.07,1111122 
COMPS,ioos:station:USF.COMPS:C13:1,2014-02-13T18:35:00Z,26.0630,-83.0730,17.93,1111122 
COMPS,ioos:station:USF.COMPS:C13:1,2014-02-13T19:05:00Z,26.0630,-83.0730,18.12,1111122 
COMPS,ioos:station:USF.COMPS:C13:1,2014-02-13T19:35:00Z,26.0630,-83.0730,18.13,1111122 
COMPS,ioos:station:USF.COMPS:C13:1,2014-02-13T20:05:00Z,26.0630,-83.0730,17.57,1111122 
COMPS,ioos:station:USF.COMPS:C13:1,2014-02-13T20:35:00Z,26.0630,-83.0730,17.6,1111122 
COMPS,ioos:station:USF.COMPS:C13:1,2014-02-13T21:05:00Z,26.0630,-83.0730,17.88,1111122 
COMPS,ioos:station:USF.COMPS:C13:1,2014-02-13T21:35:00Z,26.0630,-83.0730,18.07,1111122 
COMPS,ioos:station:USF.COMPS:C13:1,2014-02-13T22:05:00Z,26.0630,-83.0730,17.99,1111122 
COMPS,ioos:station:USF.COMPS:C13:1,2014-02-13T22:35:00Z,26.0630,-83.0730,17.99,1111122 
COMPS,ioos:station:USF.COMPS:C13:1,2014-02-13T23:05:00Z,26.0630,-83.0730,17.87,1111122 
COMPS,ioos:station:USF.COMPS:C13:1,2014-02-13T23:35:00Z,26.0630,-83.0730,17.83,1111122 
COMPS,ioos:station:USF.COMPS:C13:1,2014-02-14T00:05:00Z,26.0630,-83.0730,17.89,1111122 
COMPS,ioos:station:USF.COMPS:C13:1,2014-02-14T00:35:00Z,26.0630,-83.0730,17.74,1111122 
COMPS,ioos:station:USF.COMPS:C13:1,2014-02-14T01:05:00Z,26.0630,-83.0730,17.61,1111122 
COMPS,ioos:station:USF.COMPS:C13:1,2014-02-14T01:35:00Z,26.0630,-83.0730,17.58,1111122 
COMPS,ioos:station:USF.COMPS:C13:1,2014-02-14T02:05:00Z,26.0630,-83.0730,17.75,1111122 
COMPS,ioos:station:USF.COMPS:C13:1,2014-02-14T02:35:00Z,26.0630,-83.0730,17.58,1111122 
COMPS,ioos:station:USF.COMPS:C13:1,2014-02-14T03:05:00Z,26.0630,-83.0730,17.25,1111122 
COMPS,ioos:station:USF.COMPS:C13:1,2014-02-14T03:35:00Z,26.0630,-83.0730,16.95,1111122 
COMPS,ioos:station:USF.COMPS:C13:1,2014-02-14T04:05:00Z,26.0630,-83.0730,16.75,1111122 
COMPS,ioos:station:USF.COMPS:C13:1,2014-02-14T04:35:00Z,26.0630,-83.0730,16.62,1111122 
COMPS,ioos:station:USF.COMPS:C13:1,2014-02-14T05:05:00Z,26.0630,-83.0730,16.59,1111122 
COMPS,ioos:station:USF.COMPS:C13:1,2014-02-14T05:35:00Z,26.0630,-83.0730,16.73,1111122 
COMPS,ioos:station:USF.COMPS:C13:1,2014-02-14T06:05:00Z,26.0630,-83.0730,16.73,1111122 
COMPS,ioos:station:USF.COMPS:C13:1,2014-02-14T06:35:00Z,26.0630,-83.0730,16.76,1111122 
COMPS,ioos:station:USF.COMPS:C13:1,2014-02-14T07:05:00Z,26.0630,-83.0730,16.48,1111122 
COMPS,ioos:station:USF.COMPS:C13:1,2014-02-14T07:35:00Z,26.0630,-83.0730,16.47,1111122 
COMPS,ioos:station:USF.COMPS:C13:1,2014-02-14T08:05:00Z,26.0630,-83.0730,16.3,1111122 
COMPS,ioos:station:USF.COMPS:C13:1,2014-02-14T08:35:00Z,26.0630,-83.0730,16.19,1111122 
COMPS,ioos:station:USF.COMPS:C13:1,2014-02-14T09:05:00Z,26.0630,-83.0730,16.38,1111122 
COMPS,ioos:station:USF.COMPS:C13:1,2014-02-14T09:35:00Z,26.0630,-83.0730,16.42,1111122 
COMPS,ioos:station:USF.COMPS:C13:1,2014-02-14T10:05:00Z,26.0630,-83.0730,16.56,1111122 
COMPS,ioos:station:USF.COMPS:C13:1,2014-02-14T10:35:00Z,26.0630,-83.0730,16.33,1111122 
COMPS,ioos:station:USF.COMPS:C13:1,2014-02-14T11:05:00Z,26.0630,-83.0730,16.45,1111122 
COMPS,ioos:station:USF.COMPS:C13:1,2014-02-14T11:35:00Z,26.0630,-83.0730,16.39,1111122 
COMPS,ioos:station:USF.COMPS:C13:1,2014-02-14T12:05:00Z,26.0630,-83.0730,16.37,1111122 
COMPS,ioos:station:USF.COMPS:C13:1,2014-02-14T12:35:00Z,26.0630,-83.0730,16.5,1111122 
COMPS,ioos:station:USF.COMPS:C13:1,2014-02-14T13:05:00Z,26.0630,-83.0730,16.38,1111122 
COMPS,ioos:station:USF.COMPS:C13:1,2014-02-14T13:35:00Z,26.0630,-83.0730,16.48,1111122 
COMPS,ioos:station:USF.COMPS:C13:1,2014-02-14T14:05:00Z,26.0630,-83.0730,16.66,1111122 
COMPS,ioos:station:USF.COMPS:C13:1,2014-02-14T14:35:00Z,26.0630,-83.0730,16.9,1111122 
COMPS,ioos:station:USF.COMPS:C13:1,2014-02-14T15:05:00Z,26.0630,-83.0730,16.91,1111122 
COMPS,ioos:station:USF.COMPS:C13:1,2014-02-14T15:35:00Z,26.0630,-83.0730,17.16,1111122 
COMPS,ioos:station:USF.COMPS:C13:1,2014-02-14T16:05:00Z,26.0630,-83.0730,17.4,1111122 
COMPS,ioos:station:USF.COMPS:C13:1,2014-02-14T16:35:00Z,26.0630,-83.0730,17.11,1111122 
COMPS,ioos:station:USF.COMPS:C13:1,2014-02-14T17:05:00Z,26.0630,-83.0730,17.35,1111122 
COMPS,ioos:station:USF.COMPS:C13:1,2014-02-14T17:35:00Z,26.0630,-83.0730,17.7,1111122 
COMPS,ioos:station:USF.COMPS:C13:1,2014-02-14T18:05:00Z,26.0630,-83.0730,17.3,1111122 
COMPS,ioos:station:USF.COMPS:C13:1,2014-02-14T18:35:00Z,26.0630,-83.0730,18.19,1111122 
COMPS,ioos:station:USF.COMPS:C13:1,2014-02-14T19:05:00Z,26.0630,-83.0730,17.79,1111122 
COMPS,ioos:station:USF.COMPS:C13:1,2014-02-14T19:35:00Z,26.0630,-83.0730,17.74,1111122 
COMPS,ioos:station:USF.COMPS:C13:1,2014-02-14T20:05:00Z,26.0630,-83.0730,17.77,1111122 
COMPS,ioos:station:USF.COMPS:C13:1,2014-02-14T20:35:00Z,26.0630,-83.0730,17.82,1111122 
COMPS,ioos:station:USF.COMPS:C13:1,2014-02-14T21:05:00Z,26.0630,-83.0730,18.1,1111122 
COMPS,ioos:station:USF.COMPS:C13:1,2014-02-14T21:35:00Z,26.0630,-83.0730,18.65,1111122 
COMPS,ioos:station:USF.COMPS:C13:1,2014-02-14T22:05:00Z,26.0630,-83.0730,18.28,1111122 
COMPS,ioos:station:USF.COMPS:C13:1,2014-02-14T22:35:00Z,26.0630,-83.0730,18.46,1111122 
COMPS,ioos:station:USF.COMPS:C13:1,2014-02-14T23:05:00Z,26.0630,-83.0730,18.59,1111122 
COMPS,ioos:station:USF.COMPS:C13:1,2014-02-14T23:35:00Z,26.0630,-83.0730,18.41,1111122 
COMPS,ioos:station:USF.COMPS:C13:1,2014-02-15T00:05:00Z,26.0630,-83.0730,18.35,1111122 
COMPS,ioos:station:USF.COMPS:C13:1,2014-02-15T00:35:00Z,26.0630,-83.0730,18.41,1111122 
COMPS,ioos:station:USF.COMPS:C13:1,2014-02-15T01:05:00Z,26.0630,-83.0730,18.38,1111122 
COMPS,ioos:station:USF.COMPS:C13:1,2014-02-15T01:35:00Z,26.0630,-83.0730,18.42,1111122 
COMPS,ioos:station:USF.COMPS:C13:1,2014-02-15T02:05:00Z,26.0630,-83.0730,18.62,1111122 
COMPS,ioos:station:USF.COMPS:C13:1,2014-02-15T02:35:00Z,26.0630,-83.0730,18.66,1111122 
COMPS,ioos:station:USF.COMPS:C13:1,2014-02-15T03:05:00Z,26.0630,-83.0730,18.8,1111122 
COMPS,ioos:station:USF.COMPS:C13:1,2014-02-15T03:35:00Z,26.0630,-83.0730,19.02,1111122 
COMPS,ioos:station:USF.COMPS:C13:1,2014-02-15T04:05:00Z,26.0630,-83.0730,18.96,1111122 
COMPS,ioos:station:USF.COMPS:C13:1,2014-02-15T04:35:00Z,26.0630,-83.0730,19.0,1111122 
COMPS,ioos:station:USF.COMPS:C13:1,2014-02-15T05:05:00Z,26.0630,-83.0730,19.06,1111122 
COMPS,ioos:station:USF.COMPS:C13:1,2014-02-15T05:35:00Z,26.0630,-83.0730,19.09,1111122 
COMPS,ioos:station:USF.COMPS:C13:1,2014-02-15T06:05:00Z,26.0630,-83.0730,19.19,1111122 
COMPS,ioos:station:USF.COMPS:C13:1,2014-02-15T06:35:00Z,26.0630,-83.0730,19.23,1111122 
COMPS,ioos:station:USF.COMPS:C13:1,2014-02-15T07:05:00Z,26.0630,-83.0730,19.47,1111122 
COMPS,ioos:station:USF.COMPS:C13:1,2014-02-15T07:35:00Z,26.0630,-83.0730,19.65,1111122 
COMPS,ioos:station:USF.COMPS:C13:1,2014-02-15T22:05:00Z,26.0630,-83.0730,17.96,1111122 
COMPS,ioos:station:USF.COMPS:C13:1,2014-02-15T22:35:00Z,26.0630,-83.0730,18.05,1111122 
COMPS,ioos:station:USF.COMPS:C13:1,2014-02-15T23:05:00Z,26.0630,-83.0730,17.79,1111122 
COMPS,ioos:station:USF.COMPS:C13:1,2014-02-15T23:35:00Z,26.0630,-83.0730,17.68,1111122 
COMPS,ioos:station:USF.COMPS:C13:1,2014-02-16T00:05:00Z,26.0630,-83.0730,17.8,1111122 
COMPS,ioos:station:USF.COMPS:C13:1,2014-02-16T00:35:00Z,26.0630,-83.0730,17.7,1111122 
COMPS,ioos:station:USF.COMPS:C13:1,2014-02-16T01:05:00Z,26.0630,-83.0730,17.88,1111122 
COMPS,ioos:station:USF.COMPS:C13:1,2014-02-16T01:35:00Z,26.0630,-83.0730,17.91,1111122 
COMPS,ioos:station:USF.COMPS:C13:1,2014-02-16T02:05:00Z,26.0630,-83.0730,17.82,1111122 
COMPS,ioos:station:USF.COMPS:C13:1,2014-02-16T02:35:00Z,26.0630,-83.0730,17.76,1111122 
COMPS,ioos:station:USF.COMPS:C13:1,2014-02-16T03:05:00Z,26.0630,-83.0730,17.84,1111122 
COMPS,ioos:station:USF.COMPS:C13:1,2014-02-16T03:35:00Z,26.0630,-83.0730,17.81,1111122 
COMPS,ioos:station:USF.COMPS:C13:1,2014-02-16T04:05:00Z,26.0630,-83.0730,17.75,1111122 
COMPS,ioos:station:USF.COMPS:C13:1,2014-02-16T04:35:00Z,26.0630,-83.0730,17.56,1111122 
COMPS,ioos:station:USF.COMPS:C13:1,2014-02-16T05:05:00Z,26.0630,-83.0730,17.63,1111122 
COMPS,ioos:station:USF.COMPS:C13:1,2014-02-16T05:35:00Z,26.0630,-83.0730,17.42,1111122 
COMPS,ioos:station:USF.COMPS:C13:1,2014-02-16T06:05:00Z,26.0630,-83.0730,17.44,1111122 
COMPS,ioos:station:USF.COMPS:C13:1,2014-02-16T06:35:00Z,26.0630,-83.0730,17.3,1111122 
COMPS,ioos:station:USF.COMPS:C13:1,2014-02-16T07:05:00Z,26.0630,-83.0730,17.33,1111122 
COMPS,ioos:station:USF.COMPS:C13:1,2014-02-16T07:35:00Z,26.0630,-83.0730,17.48,1111122 
COMPS,ioos:station:USF.COMPS:C13:1,2014-02-16T08:05:00Z,26.0630,-83.0730,17.61,1111122 
COMPS,ioos:station:USF.COMPS:C13:1,2014-02-16T08:35:00Z,26.0630,-83.0730,17.61,1111122 
COMPS,ioos:station:USF.COMPS:C13:1,2014-02-16T13:05:00Z,26.0630,-83.0730,17.75,1111122 
COMPS,ioos:station:USF.COMPS:C13:1,2014-02-16T13:35:00Z,26.0630,-83.0730,17.51,1111122 
COMPS,ioos:station:USF.COMPS:C13:1,2014-02-16T14:05:00Z,26.0630,-83.0730,17.32,1111122 
COMPS,ioos:station:USF.COMPS:C13:1,2014-02-16T14:35:00Z,26.0630,-83.0730,16.94,1111122 
COMPS,ioos:station:USF.COMPS:C13:1,2014-02-16T15:05:00Z,26.0630,-83.0730,16.51,1111122 
COMPS,ioos:station:USF.COMPS:C13:1,2014-02-16T15:35:00Z,26.0630,-83.0730,16.43,1111122 
COMPS,ioos:station:USF.COMPS:C13:1,2014-02-16T17:05:00Z,26.0630,-83.0730,16.53,1111122 
COMPS,ioos:station:USF.COMPS:C13:1,2014-02-16T17:35:00Z,26.0630,-83.0730,16.73,1111122 